Year,Month,Day,Hour,Minute,Value (Times are PST for temperature in C)
2016,08,19,00,00,20.50
2016,08,19,00,01,20.50
2016,08,19,00,02,20.40
2016,08,19,00,03,20.40
2016,08,19,00,04,20.30
2016,08,19,00,05,20.30
2016,08,19,00,06,20.30
2016,08,19,00,07,20.30
2016,08,19,00,08,20.30
2016,08,19,00,09,20.40
2016,08,19,00,10,20.40
2016,08,19,00,11,20.40
2016,08,19,00,12,20.40
2016,08,19,00,13,20.50
2016,08,19,00,14,20.50
2016,08,19,00,15,20.60
2016,08,19,00,16,20.70
2016,08,19,00,17,20.90
2016,08,19,00,18,21.10
2016,08,19,00,19,21.20
2016,08,19,00,20,21.30
2016,08,19,00,21,21.30
2016,08,19,00,22,21.40
2016,08,19,00,23,21.50
2016,08,19,00,24,21.60
2016,08,19,00,25,21.70
2016,08,19,00,26,21.80
2016,08,19,00,27,21.80
2016,08,19,00,28,21.90
2016,08,19,00,29,21.90
2016,08,19,00,30,21.90
2016,08,19,00,31,21.90
2016,08,19,00,32,21.90
2016,08,19,00,33,21.90
2016,08,19,00,34,21.90
2016,08,19,00,35,21.90
2016,08,19,00,36,21.90
2016,08,19,00,37,21.90
2016,08,19,00,38,21.90
2016,08,19,00,39,21.90
2016,08,19,00,40,21.90
2016,08,19,00,41,22.00
2016,08,19,00,42,22.00
2016,08,19,00,43,22.00
2016,08,19,00,44,22.00
2016,08,19,00,45,21.90
2016,08,19,00,46,21.80
2016,08,19,00,47,21.70
2016,08,19,00,48,21.60
2016,08,19,00,49,21.40
2016,08,19,00,50,21.30
2016,08,19,00,51,21.10
2016,08,19,00,52,21.00
2016,08,19,00,53,20.90
2016,08,19,00,54,20.80
2016,08,19,00,55,20.80
2016,08,19,00,56,20.90
2016,08,19,00,57,20.90
2016,08,19,00,58,21.00
2016,08,19,00,59,21.20
2016,08,19,01,00,21.30
2016,08,19,01,01,21.40
2016,08,19,01,02,21.40
2016,08,19,01,03,21.50
2016,08,19,01,04,21.60
2016,08,19,01,05,21.70
2016,08,19,01,06,21.80
2016,08,19,01,07,21.90
2016,08,19,01,08,22.10
2016,08,19,01,09,22.10
2016,08,19,01,10,22.20
2016,08,19,01,11,22.30
2016,08,19,01,12,22.40
2016,08,19,01,13,22.50
2016,08,19,01,14,22.50
2016,08,19,01,15,22.60
2016,08,19,01,16,22.70
2016,08,19,01,17,22.70
2016,08,19,01,18,22.70
2016,08,19,01,19,22.70
2016,08,19,01,20,22.70
2016,08,19,01,21,22.70
2016,08,19,01,22,22.60
2016,08,19,01,23,22.50
2016,08,19,01,24,22.50
2016,08,19,01,25,22.50
2016,08,19,01,26,22.50
2016,08,19,01,27,22.60
2016,08,19,01,28,22.70
2016,08,19,01,29,22.80
2016,08,19,01,30,22.80
2016,08,19,01,31,22.80
2016,08,19,01,32,22.80
2016,08,19,01,33,22.80
2016,08,19,01,34,22.80
2016,08,19,01,35,22.80
2016,08,19,01,36,22.70
2016,08,19,01,37,22.70
2016,08,19,01,38,22.60
2016,08,19,01,39,22.60
2016,08,19,01,40,22.60
2016,08,19,01,41,22.50
2016,08,19,01,42,22.50
2016,08,19,01,43,22.40
2016,08,19,01,44,22.40
2016,08,19,01,45,22.40
2016,08,19,01,46,22.40
2016,08,19,01,47,22.40
2016,08,19,01,48,22.40
2016,08,19,01,49,22.40
2016,08,19,01,50,22.40
2016,08,19,01,51,22.50
2016,08,19,01,52,22.50
2016,08,19,01,53,22.60
2016,08,19,01,54,22.60
2016,08,19,01,55,22.70
2016,08,19,01,56,22.70
2016,08,19,01,57,22.80
2016,08,19,01,58,22.80
2016,08,19,01,59,22.80
2016,08,19,02,00,22.90
2016,08,19,02,01,22.90
2016,08,19,02,02,22.90
2016,08,19,02,03,22.90
2016,08,19,02,04,23.00
2016,08,19,02,05,23.00
2016,08,19,02,06,23.10
2016,08,19,02,07,23.10
2016,08,19,02,08,23.10
2016,08,19,02,09,23.10
2016,08,19,02,10,23.20
2016,08,19,02,11,23.30
2016,08,19,02,12,23.40
2016,08,19,02,13,23.40
2016,08,19,02,14,23.40
2016,08,19,02,15,23.50
2016,08,19,02,16,23.60
2016,08,19,02,17,23.60
2016,08,19,02,18,23.60
2016,08,19,02,19,23.60
2016,08,19,02,20,23.60
2016,08,19,02,21,23.50
2016,08,19,02,22,23.40
2016,08,19,02,23,23.30
2016,08,19,02,24,23.20
2016,08,19,02,25,23.00
2016,08,19,02,26,22.80
2016,08,19,02,27,22.70
2016,08,19,02,28,22.50
2016,08,19,02,29,22.40
2016,08,19,02,30,22.30
2016,08,19,02,31,22.20
2016,08,19,02,32,22.00
2016,08,19,02,33,21.90
2016,08,19,02,34,21.90
2016,08,19,02,35,21.80
2016,08,19,02,36,21.80
2016,08,19,02,37,21.70
2016,08,19,02,38,21.70
2016,08,19,02,39,21.60
2016,08,19,02,40,21.60
2016,08,19,02,41,21.60
2016,08,19,02,42,21.60
2016,08,19,02,43,21.60
2016,08,19,02,44,21.60
2016,08,19,02,45,21.60
2016,08,19,02,46,21.60
2016,08,19,02,47,21.60
2016,08,19,02,48,21.60
2016,08,19,02,49,21.50
2016,08,19,02,50,21.60
2016,08,19,02,51,21.60
2016,08,19,02,52,21.70
2016,08,19,02,53,21.80
2016,08,19,02,54,21.90
2016,08,19,02,55,21.90
2016,08,19,02,56,22.00
2016,08,19,02,57,22.10
2016,08,19,02,58,22.20
2016,08,19,02,59,22.40
2016,08,19,03,00,22.50
2016,08,19,03,01,22.70
2016,08,19,03,02,22.90
2016,08,19,03,03,23.10
2016,08,19,03,04,23.20
2016,08,19,03,05,23.30
2016,08,19,03,06,23.50
2016,08,19,03,07,23.60
2016,08,19,03,08,23.70
2016,08,19,03,09,23.80
2016,08,19,03,10,23.90
2016,08,19,03,11,24.00
2016,08,19,03,12,24.00
2016,08,19,03,13,24.10
2016,08,19,03,14,24.10
2016,08,19,03,15,24.20
2016,08,19,03,16,24.20
2016,08,19,03,17,24.30
2016,08,19,03,18,24.30
2016,08,19,03,19,24.30
2016,08,19,03,20,24.40
2016,08,19,03,21,24.40
2016,08,19,03,22,24.50
2016,08,19,03,23,24.50
2016,08,19,03,24,24.50
2016,08,19,03,25,24.50
2016,08,19,03,26,24.50
2016,08,19,03,27,24.50
2016,08,19,03,28,24.50
2016,08,19,03,29,24.50
2016,08,19,03,30,24.50
2016,08,19,03,31,24.50
2016,08,19,03,32,24.50
2016,08,19,03,33,24.50
2016,08,19,03,34,24.40
2016,08,19,03,35,24.40
2016,08,19,03,36,24.40
2016,08,19,03,37,24.40
2016,08,19,03,38,24.40
2016,08,19,03,39,24.40
2016,08,19,03,40,24.40
2016,08,19,03,41,24.40
2016,08,19,03,42,24.40
2016,08,19,03,43,24.40
2016,08,19,03,44,24.40
2016,08,19,03,45,24.40
2016,08,19,03,46,24.40
2016,08,19,03,47,24.30
2016,08,19,03,48,24.30
2016,08,19,03,49,24.30
2016,08,19,03,50,24.30
2016,08,19,03,51,24.20
2016,08,19,03,52,24.20
2016,08,19,03,53,24.10
2016,08,19,03,54,24.10
2016,08,19,03,55,24.00
2016,08,19,03,56,23.90
2016,08,19,03,57,23.90
2016,08,19,03,58,23.90
2016,08,19,03,59,23.90
2016,08,19,04,00,23.90
2016,08,19,04,01,24.00
2016,08,19,04,02,24.00
2016,08,19,04,03,24.10
2016,08,19,04,04,24.10
2016,08,19,04,05,24.10
2016,08,19,04,06,24.20
2016,08,19,04,07,24.20
2016,08,19,04,08,24.20
2016,08,19,04,09,24.20
2016,08,19,04,10,24.20
2016,08,19,04,11,24.20
2016,08,19,04,12,24.20
2016,08,19,04,13,24.30
2016,08,19,04,14,24.30
2016,08,19,04,15,24.30
2016,08,19,04,16,24.30
2016,08,19,04,17,24.30
2016,08,19,04,18,24.30
2016,08,19,04,19,24.30
2016,08,19,04,20,24.20
2016,08,19,04,21,24.10
2016,08,19,04,22,24.10
2016,08,19,04,23,24.00
2016,08,19,04,24,23.90
2016,08,19,04,25,23.80
2016,08,19,04,26,23.60
2016,08,19,04,27,23.50
2016,08,19,04,28,23.40
2016,08,19,04,29,23.30
2016,08,19,04,30,23.30
2016,08,19,04,31,23.20
2016,08,19,04,32,23.20
2016,08,19,04,33,23.10
2016,08,19,04,34,23.10
2016,08,19,04,35,23.00
2016,08,19,04,36,23.00
2016,08,19,04,37,23.00
2016,08,19,04,38,23.00
2016,08,19,04,39,23.00
2016,08,19,04,40,23.00
2016,08,19,04,41,22.90
2016,08,19,04,42,22.90
2016,08,19,04,43,22.90
2016,08,19,04,44,22.90
2016,08,19,04,45,22.90
2016,08,19,04,46,22.90
2016,08,19,04,47,22.90
2016,08,19,04,48,22.90
2016,08,19,04,49,22.90
2016,08,19,04,50,22.90
2016,08,19,04,51,22.90
2016,08,19,04,52,22.90
2016,08,19,04,53,23.00
2016,08,19,04,54,23.00
2016,08,19,04,55,22.90
2016,08,19,04,56,22.90
2016,08,19,04,57,23.00
2016,08,19,04,58,23.10
2016,08,19,04,59,23.20
2016,08,19,05,00,23.30
2016,08,19,05,01,23.30
2016,08,19,05,02,23.30
2016,08,19,05,03,23.20
2016,08,19,05,04,23.10
2016,08,19,05,05,23.00
2016,08,19,05,06,22.90
2016,08,19,05,07,22.90
2016,08,19,05,08,22.90
2016,08,19,05,09,23.00
2016,08,19,05,10,23.00
2016,08,19,05,11,23.10
2016,08,19,05,12,23.10
2016,08,19,05,13,23.10
2016,08,19,05,14,23.20
2016,08,19,05,15,23.20
2016,08,19,05,16,23.20
2016,08,19,05,17,23.20
2016,08,19,05,18,23.20
2016,08,19,05,19,23.20
2016,08,19,05,20,23.10
2016,08,19,05,21,23.10
2016,08,19,05,22,23.10
2016,08,19,05,23,23.10
2016,08,19,05,24,23.10
2016,08,19,05,25,23.10
2016,08,19,05,26,23.10
2016,08,19,05,27,23.10
2016,08,19,05,28,23.00
2016,08,19,05,29,23.00
2016,08,19,05,30,22.90
2016,08,19,05,31,22.90
2016,08,19,05,32,22.90
2016,08,19,05,33,22.80
2016,08,19,05,34,22.80
2016,08,19,05,35,22.80
2016,08,19,05,36,22.70
2016,08,19,05,37,22.60
2016,08,19,05,38,22.50
2016,08,19,05,39,22.50
2016,08,19,05,40,22.40
2016,08,19,05,41,22.40
2016,08,19,05,42,22.30
2016,08,19,05,43,22.30
2016,08,19,05,44,22.30
2016,08,19,05,45,22.30
2016,08,19,05,46,22.20
2016,08,19,05,47,22.20
2016,08,19,05,48,22.20
2016,08,19,05,49,22.20
2016,08,19,05,50,22.20
2016,08,19,05,51,22.30
2016,08,19,05,52,22.30
2016,08,19,05,53,22.30
2016,08,19,05,54,22.30
2016,08,19,05,55,22.40
2016,08,19,05,56,22.40
2016,08,19,05,57,22.40
2016,08,19,05,58,22.40
2016,08,19,05,59,22.40
2016,08,19,06,00,22.40
2016,08,19,06,01,22.40
2016,08,19,06,02,22.40
2016,08,19,06,03,22.40
2016,08,19,06,04,22.40
2016,08,19,06,05,22.30
2016,08,19,06,06,22.20
2016,08,19,06,07,22.20
2016,08,19,06,08,22.20
2016,08,19,06,09,22.10
2016,08,19,06,10,22.10
2016,08,19,06,11,22.10
2016,08,19,06,12,22.10
2016,08,19,06,13,22.00
2016,08,19,06,14,21.80
2016,08,19,06,15,21.60
2016,08,19,06,16,21.30
2016,08,19,06,17,21.10
2016,08,19,06,18,20.80
2016,08,19,06,19,20.70
2016,08,19,06,20,20.60
2016,08,19,06,21,20.60
2016,08,19,06,22,20.50
2016,08,19,06,23,20.50
2016,08,19,06,24,20.60
2016,08,19,06,25,20.60
2016,08,19,06,26,20.60
2016,08,19,06,27,20.70
2016,08,19,06,28,20.70
2016,08,19,06,29,20.80
2016,08,19,06,30,20.80
2016,08,19,06,31,20.90
2016,08,19,06,32,21.00
2016,08,19,06,33,21.10
2016,08,19,06,34,21.20
2016,08,19,06,35,21.30
2016,08,19,06,36,21.40
2016,08,19,06,37,21.50
2016,08,19,06,38,21.60
2016,08,19,06,39,21.70
2016,08,19,06,40,21.70
2016,08,19,06,41,21.70
2016,08,19,06,42,21.70
2016,08,19,06,43,21.70
2016,08,19,06,44,21.70
2016,08,19,06,45,21.70
2016,08,19,06,46,21.60
2016,08,19,06,47,21.60
2016,08,19,06,48,21.60
2016,08,19,06,49,21.60
2016,08,19,06,50,21.60
2016,08,19,06,51,21.60
2016,08,19,06,52,21.60
2016,08,19,06,53,21.70
2016,08,19,06,54,21.70
2016,08,19,06,55,21.70
2016,08,19,06,56,21.80
2016,08,19,06,57,21.80
2016,08,19,06,58,21.80
2016,08,19,06,59,21.80
2016,08,19,07,00,21.80
2016,08,19,07,01,21.80
2016,08,19,07,02,21.90
2016,08,19,07,03,21.90
2016,08,19,07,04,22.00
2016,08,19,07,05,22.00
2016,08,19,07,06,22.10
2016,08,19,07,07,22.20
2016,08,19,07,08,22.20
2016,08,19,07,09,22.20
2016,08,19,07,10,22.20
2016,08,19,07,11,22.10
2016,08,19,07,12,22.10
2016,08,19,07,13,22.00
2016,08,19,07,14,22.00
2016,08,19,07,15,21.90
2016,08,19,07,16,21.90
2016,08,19,07,17,21.80
2016,08,19,07,18,21.80
2016,08,19,07,19,21.80
2016,08,19,07,20,21.80
2016,08,19,07,21,21.80
2016,08,19,07,22,21.80
2016,08,19,07,23,21.80
2016,08,19,07,24,21.80
2016,08,19,07,25,21.80
2016,08,19,07,26,21.80
2016,08,19,07,27,21.80
2016,08,19,07,28,21.80
2016,08,19,07,29,21.80
2016,08,19,07,30,21.90
2016,08,19,07,31,21.90
2016,08,19,07,32,21.90
2016,08,19,07,33,21.80
2016,08,19,07,34,21.80
2016,08,19,07,35,21.80
2016,08,19,07,36,21.80
2016,08,19,07,37,21.80
2016,08,19,07,38,21.70
2016,08,19,07,39,21.70
2016,08,19,07,40,21.70
2016,08,19,07,41,21.70
2016,08,19,07,42,21.70
2016,08,19,07,43,21.80
2016,08,19,07,44,21.80
2016,08,19,07,45,21.80
2016,08,19,07,46,21.80
2016,08,19,07,47,21.90
2016,08,19,07,48,21.90
2016,08,19,07,49,21.90
2016,08,19,07,50,21.90
2016,08,19,07,51,22.00
2016,08,19,07,52,22.00
2016,08,19,07,53,22.00
2016,08,19,07,54,22.10
2016,08,19,07,55,22.10
2016,08,19,07,56,22.10
2016,08,19,07,57,22.20
2016,08,19,07,58,22.30
2016,08,19,07,59,22.30
2016,08,19,08,00,22.40
2016,08,19,08,01,22.50
2016,08,19,08,02,22.60
2016,08,19,08,03,22.70
2016,08,19,08,04,22.70
2016,08,19,08,05,22.80
2016,08,19,08,06,22.80
2016,08,19,08,07,22.90
2016,08,19,08,08,22.90
2016,08,19,08,09,23.00
2016,08,19,08,10,23.00
2016,08,19,08,11,23.10
2016,08,19,08,12,23.10
2016,08,19,08,13,23.10
2016,08,19,08,14,23.20
2016,08,19,08,15,23.20
2016,08,19,08,16,23.30
2016,08,19,08,17,23.30
2016,08,19,08,18,23.30
2016,08,19,08,19,23.30
2016,08,19,08,20,23.30
2016,08,19,08,21,23.30
2016,08,19,08,22,23.40
2016,08,19,08,23,23.40
2016,08,19,08,24,23.40
2016,08,19,08,25,23.50
2016,08,19,08,26,23.50
2016,08,19,08,27,23.60
2016,08,19,08,28,23.60
2016,08,19,08,29,23.70
2016,08,19,08,30,23.70
2016,08,19,08,31,23.70
2016,08,19,08,32,23.70
2016,08,19,08,33,23.60
2016,08,19,08,34,23.50
2016,08,19,08,35,23.40
2016,08,19,08,36,23.40
2016,08,19,08,37,23.40
2016,08,19,08,38,23.40
2016,08,19,08,39,23.40
2016,08,19,08,40,23.40
2016,08,19,08,41,23.30
2016,08,19,08,42,23.20
2016,08,19,08,43,23.10
2016,08,19,08,44,23.10
2016,08,19,08,45,23.00
2016,08,19,08,46,23.00
2016,08,19,08,47,23.00
2016,08,19,08,48,23.00
2016,08,19,08,49,22.90
2016,08,19,08,50,23.00
2016,08,19,08,51,23.00
2016,08,19,08,52,23.10
2016,08,19,08,53,23.10
2016,08,19,08,54,23.20
2016,08,19,08,55,23.20
2016,08,19,08,56,23.30
2016,08,19,08,57,23.30
2016,08,19,08,58,23.40
2016,08,19,08,59,23.40
2016,08,19,09,00,23.50
2016,08,19,09,01,23.60
2016,08,19,09,02,23.70
2016,08,19,09,03,23.80
2016,08,19,09,04,24.10
2016,08,19,09,05,24.40
2016,08,19,09,06,24.60
2016,08,19,09,07,24.90
2016,08,19,09,08,25.10
2016,08,19,09,09,25.30
2016,08,19,09,10,25.50
2016,08,19,09,11,25.70
2016,08,19,09,12,25.80
2016,08,19,09,13,25.90
2016,08,19,09,14,26.00
2016,08,19,09,15,26.10
2016,08,19,09,16,26.20
2016,08,19,09,17,26.20
2016,08,19,09,18,26.30
2016,08,19,09,19,26.30
2016,08,19,09,20,26.40
2016,08,19,09,21,26.50
2016,08,19,09,22,26.50
2016,08,19,09,23,26.60
2016,08,19,09,24,26.60
2016,08,19,09,25,26.60
2016,08,19,09,26,26.70
2016,08,19,09,27,26.70
2016,08,19,09,28,26.70
2016,08,19,09,29,26.70
2016,08,19,09,30,26.70
2016,08,19,09,31,26.70
2016,08,19,09,32,26.70
2016,08,19,09,33,26.70
2016,08,19,09,34,26.70
2016,08,19,09,35,26.70
2016,08,19,09,36,26.70
2016,08,19,09,37,26.70
2016,08,19,09,38,26.80
2016,08,19,09,39,26.80
2016,08,19,09,40,26.80
2016,08,19,09,41,26.80
2016,08,19,09,42,26.80
2016,08,19,09,43,26.80
2016,08,19,09,44,26.80
2016,08,19,09,45,26.90
2016,08,19,09,46,26.90
2016,08,19,09,47,26.90
2016,08,19,09,48,26.90
2016,08,19,09,49,27.00
2016,08,19,09,50,27.00
2016,08,19,09,51,27.00
2016,08,19,09,52,27.00
2016,08,19,09,53,27.00
2016,08,19,09,54,27.00
2016,08,19,09,55,27.00
2016,08,19,09,56,27.00
2016,08,19,09,57,27.00
2016,08,19,09,58,27.00
2016,08,19,09,59,27.10
2016,08,19,10,00,27.10
2016,08,19,10,01,27.10
2016,08,19,10,02,27.10
2016,08,19,10,03,27.20
2016,08,19,10,04,27.10
2016,08,19,10,05,27.10
2016,08,19,10,06,27.10
2016,08,19,10,07,27.10
2016,08,19,10,08,27.10
2016,08,19,10,09,27.10
2016,08,19,10,10,27.20
2016,08,19,10,11,27.10
2016,08,19,10,12,27.10
2016,08,19,10,13,27.10
2016,08,19,10,14,27.10
2016,08,19,10,15,27.10
2016,08,19,10,16,27.20
2016,08,19,10,17,27.20
2016,08,19,10,18,27.20
2016,08,19,10,19,27.30
2016,08,19,10,20,27.30
2016,08,19,10,21,27.30
2016,08,19,10,22,27.30
2016,08,19,10,23,27.40
2016,08,19,10,24,27.40
2016,08,19,10,25,27.40
2016,08,19,10,26,27.40
2016,08,19,10,27,27.30
2016,08,19,10,28,27.30
2016,08,19,10,29,27.30
2016,08,19,10,30,27.20
2016,08,19,10,31,27.20
2016,08,19,10,32,27.30
2016,08,19,10,33,27.30
2016,08,19,10,34,27.30
2016,08,19,10,35,27.30
2016,08,19,10,36,27.30
2016,08,19,10,37,27.40
2016,08,19,10,38,27.40
2016,08,19,10,39,27.50
2016,08,19,10,40,27.50
2016,08,19,10,41,27.60
2016,08,19,10,42,27.60
2016,08,19,10,43,27.50
2016,08,19,10,44,27.50
2016,08,19,10,45,27.50
2016,08,19,10,46,27.60
2016,08,19,10,47,27.60
2016,08,19,10,48,27.70
2016,08,19,10,49,27.70
2016,08,19,10,50,27.70
2016,08,19,10,51,27.70
2016,08,19,10,52,27.70
2016,08,19,10,53,27.80
2016,08,19,10,54,27.80
2016,08,19,10,55,27.80
2016,08,19,10,56,27.80
2016,08,19,10,57,27.90
2016,08,19,10,58,27.90
2016,08,19,10,59,28.00
2016,08,19,11,00,28.00
2016,08,19,11,01,28.10
2016,08,19,11,02,28.10
2016,08,19,11,03,28.20
2016,08,19,11,04,28.20
2016,08,19,11,05,28.20
2016,08,19,11,06,28.20
2016,08,19,11,07,28.30
2016,08,19,11,08,28.40
2016,08,19,11,09,28.40
2016,08,19,11,10,28.40
2016,08,19,11,11,28.40
2016,08,19,11,12,28.40
2016,08,19,11,13,28.40
2016,08,19,11,14,28.40
2016,08,19,11,15,28.40
2016,08,19,11,16,28.30
2016,08,19,11,17,28.30
2016,08,19,11,18,28.30
2016,08,19,11,19,28.30
2016,08,19,11,20,28.30
2016,08,19,11,21,28.40
2016,08,19,11,22,28.40
2016,08,19,11,23,28.40
2016,08,19,11,24,28.40
2016,08,19,11,25,28.40
2016,08,19,11,26,28.40
2016,08,19,11,27,28.40
2016,08,19,11,28,28.50
2016,08,19,11,29,28.50
2016,08,19,11,30,28.50
2016,08,19,11,31,28.50
2016,08,19,11,32,28.50
2016,08,19,11,33,28.50
2016,08,19,11,34,28.40
2016,08,19,11,35,28.40
2016,08,19,11,36,28.40
2016,08,19,11,37,28.40
2016,08,19,11,38,28.50
2016,08,19,11,39,28.50
2016,08,19,11,40,28.60
2016,08,19,11,41,28.60
2016,08,19,11,42,28.70
2016,08,19,11,43,28.70
2016,08,19,11,44,28.70
2016,08,19,11,45,28.60
2016,08,19,11,46,28.60
2016,08,19,11,47,28.60
2016,08,19,11,48,28.70
2016,08,19,11,49,28.70
2016,08,19,11,50,28.80
2016,08,19,11,51,28.90
2016,08,19,11,52,28.90
2016,08,19,11,53,29.00
2016,08,19,11,54,29.10
2016,08,19,11,55,29.20
2016,08,19,11,56,29.30
2016,08,19,11,57,29.30
2016,08,19,11,58,29.30
2016,08,19,11,59,29.40
2016,08,19,12,00,29.30
2016,08,19,12,01,29.20
2016,08,19,12,02,29.20
2016,08,19,12,03,29.20
2016,08,19,12,04,29.30
2016,08,19,12,05,29.30
2016,08,19,12,06,29.30
2016,08,19,12,07,29.30
2016,08,19,12,08,29.30
2016,08,19,12,09,29.30
2016,08,19,12,10,29.30
2016,08,19,12,11,29.20
2016,08,19,12,12,29.20
2016,08,19,12,13,29.30
2016,08,19,12,14,29.30
2016,08,19,12,15,29.30
2016,08,19,12,16,29.30
2016,08,19,12,17,29.40
2016,08,19,12,18,29.50
2016,08,19,12,19,29.60
2016,08,19,12,20,29.60
2016,08,19,12,21,29.70
2016,08,19,12,22,29.60
2016,08,19,12,23,29.70
2016,08,19,12,24,29.70
2016,08,19,12,25,29.70
2016,08,19,12,26,29.50
2016,08,19,12,27,29.40
2016,08,19,12,28,29.30
2016,08,19,12,29,29.30
2016,08,19,12,30,29.30
2016,08,19,12,31,29.40
2016,08,19,12,32,29.50
2016,08,19,12,33,29.60
2016,08,19,12,34,29.70
2016,08,19,12,35,29.70
2016,08,19,12,36,29.70
2016,08,19,12,37,29.60
2016,08,19,12,38,29.60
2016,08,19,12,39,29.60
2016,08,19,12,40,29.60
2016,08,19,12,41,29.60
2016,08,19,12,42,29.60
2016,08,19,12,43,29.50
2016,08,19,12,44,29.50
2016,08,19,12,45,29.40
2016,08,19,12,46,29.40
2016,08,19,12,47,29.40
2016,08,19,12,48,29.40
2016,08,19,12,49,29.40
2016,08,19,12,50,29.40
2016,08,19,12,51,29.40
2016,08,19,12,52,29.50
2016,08,19,12,53,29.50
2016,08,19,12,54,29.60
2016,08,19,12,55,29.60
2016,08,19,12,56,29.60
2016,08,19,12,57,29.60
2016,08,19,12,58,29.60
2016,08,19,12,59,29.70
2016,08,19,13,00,29.70
2016,08,19,13,01,29.70
2016,08,19,13,02,29.70
2016,08,19,13,03,29.70
2016,08,19,13,04,29.80
2016,08,19,13,05,29.90
2016,08,19,13,06,30.00
2016,08,19,13,07,30.00
2016,08,19,13,08,30.10
2016,08,19,13,09,30.10
2016,08,19,13,10,30.10
2016,08,19,13,11,30.20
2016,08,19,13,12,30.30
2016,08,19,13,13,30.40
2016,08,19,13,14,30.50
2016,08,19,13,15,30.50
2016,08,19,13,16,30.60
2016,08,19,13,17,30.50
2016,08,19,13,18,30.40
2016,08,19,13,19,30.30
2016,08,19,13,20,30.30
2016,08,19,13,21,30.30
2016,08,19,13,22,30.30
2016,08,19,13,23,30.40
2016,08,19,13,24,30.40
2016,08,19,13,25,30.50
2016,08,19,13,26,30.50
2016,08,19,13,27,30.50
2016,08,19,13,28,30.60
2016,08,19,13,29,30.70
2016,08,19,13,30,30.70
2016,08,19,13,31,30.70
2016,08,19,13,32,30.70
2016,08,19,13,33,30.80
2016,08,19,13,34,30.80
2016,08,19,13,35,30.80
2016,08,19,13,36,30.70
2016,08,19,13,37,30.70
2016,08,19,13,38,30.70
2016,08,19,13,39,30.70
2016,08,19,13,40,30.70
2016,08,19,13,41,30.80
2016,08,19,13,42,30.80
2016,08,19,13,43,30.80
2016,08,19,13,44,30.90
2016,08,19,13,45,31.00
2016,08,19,13,46,31.00
2016,08,19,13,47,31.10
2016,08,19,13,48,31.10
2016,08,19,13,49,31.10
2016,08,19,13,50,31.10
2016,08,19,13,51,31.20
2016,08,19,13,52,31.20
2016,08,19,13,53,31.10
2016,08,19,13,54,31.10
2016,08,19,13,55,31.20
2016,08,19,13,56,31.20
2016,08,19,13,57,31.30
2016,08,19,13,58,31.30
2016,08,19,13,59,31.40
2016,08,19,14,00,31.50
2016,08,19,14,01,31.50
2016,08,19,14,02,31.60
2016,08,19,14,03,31.60
2016,08,19,14,04,31.50
2016,08,19,14,05,31.50
2016,08,19,14,06,31.60
2016,08,19,14,07,31.60
2016,08,19,14,08,31.60
2016,08,19,14,09,31.60
2016,08,19,14,10,31.60
2016,08,19,14,11,31.70
2016,08,19,14,12,31.80
2016,08,19,14,13,31.80
2016,08,19,14,14,31.80
2016,08,19,14,15,31.80
2016,08,19,14,16,31.70
2016,08,19,14,17,31.60
2016,08,19,14,18,31.60
2016,08,19,14,19,31.60
2016,08,19,14,20,31.70
2016,08,19,14,21,31.70
2016,08,19,14,22,31.70
2016,08,19,14,23,31.70
2016,08,19,14,24,31.70
2016,08,19,14,25,31.70
2016,08,19,14,26,31.60
2016,08,19,14,27,31.60
2016,08,19,14,28,31.70
2016,08,19,14,29,31.70
2016,08,19,14,30,31.80
2016,08,19,14,31,31.90
2016,08,19,14,32,32.00
2016,08,19,14,33,32.00
2016,08,19,14,34,32.10
2016,08,19,14,35,32.10
2016,08,19,14,36,32.20
2016,08,19,14,37,32.20
2016,08,19,14,38,32.20
2016,08,19,14,39,32.30
2016,08,19,14,40,32.40
2016,08,19,14,41,32.40
2016,08,19,14,42,32.50
2016,08,19,14,43,32.50
2016,08,19,14,44,32.60
2016,08,19,14,45,32.50
2016,08,19,14,46,32.50
2016,08,19,14,47,32.50
2016,08,19,14,48,32.50
2016,08,19,14,49,32.50
2016,08,19,14,50,32.60
2016,08,19,14,51,32.60
2016,08,19,14,52,32.60
2016,08,19,14,53,32.50
2016,08,19,14,54,32.50
2016,08,19,14,55,32.50
2016,08,19,14,56,32.50
2016,08,19,14,57,32.60
2016,08,19,14,58,32.60
2016,08,19,14,59,32.70
2016,08,19,15,00,32.80
2016,08,19,15,01,32.80
2016,08,19,15,02,32.80
2016,08,19,15,03,32.80
2016,08,19,15,04,32.80
2016,08,19,15,05,32.80
2016,08,19,15,06,32.80
2016,08,19,15,07,32.80
2016,08,19,15,08,32.90
2016,08,19,15,09,32.90
2016,08,19,15,10,32.90
2016,08,19,15,11,33.00
2016,08,19,15,12,33.00
2016,08,19,15,13,33.10
2016,08,19,15,14,33.10
2016,08,19,15,15,33.10
2016,08,19,15,16,33.10
2016,08,19,15,17,33.20
2016,08,19,15,18,33.30
2016,08,19,15,19,33.30
2016,08,19,15,20,33.30
2016,08,19,15,21,33.30
2016,08,19,15,22,33.30
2016,08,19,15,23,33.30
2016,08,19,15,24,33.30
2016,08,19,15,25,33.30
2016,08,19,15,26,33.40
2016,08,19,15,27,33.40
2016,08,19,15,28,33.40
2016,08,19,15,29,33.40
2016,08,19,15,30,33.40
2016,08,19,15,31,33.40
2016,08,19,15,32,33.40
2016,08,19,15,33,33.40
2016,08,19,15,34,33.10
2016,08,19,15,35,32.60
2016,08,19,15,36,31.90
2016,08,19,15,37,31.30
2016,08,19,15,38,30.80
2016,08,19,15,39,30.40
2016,08,19,15,40,30.00
2016,08,19,15,41,29.70
2016,08,19,15,42,29.50
2016,08,19,15,43,29.40
2016,08,19,15,44,29.40
2016,08,19,15,45,29.40
2016,08,19,15,46,29.40
2016,08,19,15,47,29.50
2016,08,19,15,48,29.60
2016,08,19,15,49,29.70
2016,08,19,15,50,29.80
2016,08,19,15,51,29.90
2016,08,19,15,52,30.00
2016,08,19,15,53,30.10
2016,08,19,15,54,30.10
2016,08,19,15,55,30.20
2016,08,19,15,56,30.20
2016,08,19,15,57,30.20
2016,08,19,15,58,30.10
2016,08,19,15,59,30.10
2016,08,19,16,00,30.10
2016,08,19,16,01,30.10
2016,08,19,16,02,30.10
2016,08,19,16,03,30.00
2016,08,19,16,04,30.00
2016,08,19,16,05,30.10
2016,08,19,16,06,30.20
2016,08,19,16,07,30.40
2016,08,19,16,08,30.60
2016,08,19,16,09,30.70
2016,08,19,16,10,30.80
2016,08,19,16,11,30.90
2016,08,19,16,12,31.00
2016,08,19,16,13,31.10
2016,08,19,16,14,31.20
2016,08,19,16,15,31.20
2016,08,19,16,16,31.30
2016,08,19,16,17,31.30
2016,08,19,16,18,31.40
2016,08,19,16,19,31.50
2016,08,19,16,20,31.60
2016,08,19,16,21,31.70
2016,08,19,16,22,31.80
2016,08,19,16,23,31.90
2016,08,19,16,24,32.00
2016,08,19,16,25,32.10
2016,08,19,16,26,32.20
2016,08,19,16,27,32.30
2016,08,19,16,28,32.40
2016,08,19,16,29,32.50
2016,08,19,16,30,32.70
2016,08,19,16,31,32.80
2016,08,19,16,32,32.80
2016,08,19,16,33,32.70
2016,08,19,16,34,32.40
2016,08,19,16,35,32.00
2016,08,19,16,36,31.50
2016,08,19,16,37,30.90
2016,08,19,16,38,30.30
2016,08,19,16,39,29.60
2016,08,19,16,40,29.00
2016,08,19,16,41,28.50
2016,08,19,16,42,28.10
2016,08,19,16,43,27.70
2016,08,19,16,44,27.30
2016,08,19,16,45,27.00
2016,08,19,16,46,26.80
2016,08,19,16,47,26.70
2016,08,19,16,48,26.80
2016,08,19,16,49,26.90
2016,08,19,16,50,27.00
2016,08,19,16,51,27.10
2016,08,19,16,52,27.20
2016,08,19,16,53,27.10
2016,08,19,16,54,27.10
2016,08,19,16,55,27.10
2016,08,19,16,56,27.00
2016,08,19,16,57,27.00
2016,08,19,16,58,27.00
2016,08,19,16,59,27.00
2016,08,19,17,00,27.10
2016,08,19,17,01,27.20
2016,08,19,17,02,27.30
2016,08,19,17,03,27.30
2016,08,19,17,04,27.50
2016,08,19,17,05,27.60
2016,08,19,17,06,27.70
2016,08,19,17,07,27.80
2016,08,19,17,08,27.90
2016,08,19,17,09,28.00
2016,08,19,17,10,28.00
2016,08,19,17,11,28.10
2016,08,19,17,12,28.10
2016,08,19,17,13,28.10
2016,08,19,17,14,28.20
2016,08,19,17,15,28.30
2016,08,19,17,16,28.40
2016,08,19,17,17,28.60
2016,08,19,17,18,28.70
2016,08,19,17,19,28.70